Location: Madrid
(40.4000°N, 3.6830°W)
Time: 13:57:36
(UTC+01:00)

ISS - Pass Details

Date: 14 December 2017
Orbit: 402 x 406 km, 51.6° (Epoch: 16 December)

Event Time Altitude Azimuth Distance (km) Brightness Sun altitude
Rises 18:44:46 0° 310° (NW) 2,330 0.4 -10.4°
Reaches altitude 10° 18:46:55 10° 317° (NW) 1,467 -0.7 -10.8°
Maximum altitude 18:50:05 43° 31° (NNE) 582 -3.4 -11.3°
Enters shadow 18:52:25 16° 99° (E) 1,155 -2.0 -11.7°
